| time (UTC) | temp C | wind direction | speed KPH | gust KPH | rain 1hr cm | rain 24hr cm | rain mn cm | humidity % | barometer mb |
| 20260504160303 | 19 | 206 | 0.0 | 0.0 | 0.00 | 0.00 | 0.00 | 61 | 1008.2 |
| 20260504150803 | 20 | 167 | 3.2 | 9.7 | 0.00 | 0.00 | 0.00 | 57 | 1008.9 |
| 20260504150304 | 20 | 181 | 1.6 | 9.7 | 0.00 | 0.00 | 0.00 | 56 | 1008.9 |
| 20260504141303 | 20 | 228 | 8.0 | 12.9 | 0.00 | 0.00 | 0.00 | 56 | 1008.3 |
| 20260504140803 | 20 | 167 | 4.8 | 9.7 | 0.00 | 0.00 | 0.00 | 58 | 1009.1 |
| 20260504140303 | 20 | 175 | 3.2 | 9.7 | 0.00 | 0.00 | 0.00 | 58 | 1009.1 |
| 20260504130304 | 17 | 178 | 1.6 | 9.7 | 0.00 | 0.00 | 0.00 | 68 | 1009.6 |
| 20260504120304 | 15 | 217 | 0.0 | 3.2 | 0.00 | 0.00 | 0.00 | 72 | 1009.4 |
| 20260504110303 | 15 | 213 | 0.0 | 0.0 | 0.00 | 0.00 | 0.00 | 69 | 1009.9 |
| 20260504100304 | 16 | 311 | 0.0 | 0.0 | 0.00 | 0.00 | 0.00 | 66 | 1008.5 |
| 20260504081804 | 17 | 145 | 0.0 | 0.0 | 0.00 | 0.00 | 0.00 | 59 | 1008.5 |
| 20260504081304 | 17 | 145 | 0.0 | 3.2 | 0.00 | 0.00 | 0.00 | 59 | 1008.5 |
| 20260504050304 | 19 | 239 | 11.3 | 27.4 | 0.00 | 0.00 | 0.00 | 48 | 1008.4 |
| 20260504044804 | 20 | 167 | 11.3 | 16.1 | 0.00 | 0.00 | 0.00 | 47 | 1008.7 |
| 20260504044304 | 20 | 145 | 12.9 | 19.3 | 0.00 | 0.00 | 0.00 | 47 | 1008.7 |
| 20260504043804 | 20 | 145 | 12.9 | 22.5 | 0.00 | 0.00 | 0.00 | 47 | 1008.7 |
| 20260504043303 | 20 | 145 | 12.9 | 16.1 | 0.00 | 0.00 | 0.00 | 46 | 1008.7 |
| 20260504042805 | 20 | 213 | 11.3 | 16.1 | 0.00 | 0.00 | 0.00 | 46 | 1009.0 |
| 20260504041804 | 20 | 145 | 14.5 | 16.1 | 0.00 | 0.00 | 0.00 | 45 | 1009.0 |
| 20260504041304 | 20 | 134 | 14.5 | 22.5 | 0.00 | 0.00 | 0.00 | 45 | 1009.0 |
| 20260504040304 | 20 | 325 | 11.3 | 20.9 | 0.00 | 0.00 | 0.00 | 45 | 1009.3 |
| 20260504035804 | 20 | 145 | 8.0 | 12.9 | 0.00 | 0.00 | 0.00 | 45 | 1009.3 |
| 20260504035305 | 20 | 145 | 8.0 | 12.9 | 0.00 | 0.00 | 0.00 | 45 | 1009.3 |
| 20260504034804 | 20 | 167 | 6.4 | 11.3 | 0.00 | 0.00 | 0.00 | 45 | 1009.6 |
| 20260504033804 | 20 | 145 | 3.2 | 8.0 | 0.00 | 0.08 | 0.00 | 44 | 1009.6 |
| 20260504033305 | 20 | 145 | 1.6 | 4.8 | 0.00 | 0.08 | 0.00 | 44 | 1009.6 |
| 20260504032806 | 20 | 145 | 1.6 | 3.2 | 0.00 | 0.08 | 0.00 | 43 | 1009.7 |
| 20260504032304 | 20 | 179 | 0.0 | 3.2 | 0.00 | 0.08 | 0.00 | 43 | 1009.7 |
| 20260504031804 | 20 | 190 | 1.6 | 3.2 | 0.00 | 0.08 | 0.00 | 43 | 1009.7 |
| 20260504031304 | 20 | 145 | 1.6 | 4.8 | 0.00 | 0.08 | 0.00 | 42 | 1009.7 |
| 20260504030804 | 20 | 145 | 4.8 | 4.8 | 0.00 | 0.08 | 0.00 | 42 | 1009.5 |
| 20260504030304 | 20 | 145 | 4.8 | 11.3 | 0.00 | 0.08 | 0.00 | 42 | 1009.5 |
| 20260504025804 | 20 | 167 | 6.4 | 11.3 | 0.00 | 0.08 | 0.00 | 42 | 1009.5 |
| 20260504025304 | 20 | 145 | 8.0 | 8.0 | 0.00 | 0.08 | 0.00 | 41 | 1009.5 |
| 20260504024304 | 20 | 145 | 8.0 | 9.7 | 0.00 | 0.08 | 0.00 | 41 | 1009.3 |
| 20260504023805 | 20 | 145 | 8.0 | 9.7 | 0.00 | 0.08 | 0.00 | 40 | 1009.3 |
| 20260504022304 | 21 | 145 | 4.8 | 11.3 | 0.00 | 0.08 | 0.00 | 40 | 1009.0 |
| 20260504021804 | 21 | 167 | 3.2 | 9.7 | 0.00 | 0.08 | 0.00 | 39 | 1009.0 |
| 20260504021304 | 21 | 188 | 3.2 | 9.7 | 0.00 | 0.08 | 0.00 | 39 | 1009.0 |
| 20260504020804 | 21 | 145 | 4.8 | 8.0 | 0.00 | 0.08 | 0.00 | 39 | 1009.2 |
| 20260504020304 | 21 | 145 | 4.8 | 8.0 | 0.00 | 0.08 | 0.00 | 39 | 1009.2 |
| 20260504015804 | 21 | 145 | 1.6 | 8.0 | 0.00 | 0.08 | 0.00 | 39 | 1009.2 |
| 20260504014804 | 21 | 303 | 1.6 | 4.8 | 0.00 | 0.08 | 0.00 | 38 | 1008.8 |
| 20260504014304 | 22 | 157 | 1.6 | 9.7 | 0.00 | 0.08 | 0.00 | 38 | 1008.8 |
| 20260504013805 | 22 | 303 | 1.6 | 0.0 | 0.00 | 0.08 | 0.00 | 38 | 1008.8 |
| 20260504013304 | 22 | 189 | 3.2 | 4.8 | 0.00 | 0.08 | 0.00 | 38 | 1008.8 |
| 20260504012806 | 22 | 167 | 3.2 | 4.8 | 0.00 | 0.08 | 0.00 | 38 | 1008.5 |
| 20260504012304 | 22 | 168 | 1.6 | 4.8 | 0.00 | 0.08 | 0.00 | 37 | 1008.5 |
| 20260504011806 | 22 | 197 | 4.8 | 11.3 | 0.00 | 0.08 | 0.00 | 36 | 1008.7 |
| 20260503235304 | 25 | 253 | 11.3 | 37.0 | 0.00 | 0.08 | 0.00 | 27 | 1009.2 |
| 20260503233804 | 25 | 167 | 4.8 | 11.3 | 0.00 | 0.08 | 0.00 | 26 | 1009.2 |
| 20260503233305 | 25 | 171 | 9.7 | 11.3 | 0.00 | 0.08 | 0.00 | 28 | 1009.2 |
| 20260503232306 | 26 | 100 | 11.3 | 19.3 | 0.00 | 0.08 | 0.00 | 27 | 1009.0 |
| 20260503231806 | 26 | 325 | 11.3 | 25.7 | 0.00 | 0.08 | 0.00 | 27 | 1009.0 |
| 20260503231316 | 26 | 145 | 11.3 | 25.7 | 0.00 | 0.08 | 0.00 | 26 | 1009.0 |
| 20260503230804 | 27 | 145 | 11.3 | 24.1 | 0.00 | 0.08 | 0.00 | 24 | 1009.4 |
| 20260503230301 | 27 | 153 | 11.3 | 16.1 | 0.00 | 0.08 | 0.00 | 24 | 1009.4 |
| 20260503225804 | 28 | 21 | 9.7 | 19.3 | 0.00 | 0.08 | 0.00 | 24 | 1009.4 |
| 20260503224802 | 27 | 213 | 11.3 | 22.5 | 0.00 | 0.08 | 0.00 | 24 | 1009.2 |
| 20260503224302 | 27 | 157 | 12.9 | 27.4 | 0.00 | 0.08 | 0.00 | 24 | 1009.2 |
| 20260503222801 | 27 | 145 | 14.5 | 22.5 | 0.00 | 0.08 | 0.00 | 24 | 1009.3 |
| 20260503222301 | 27 | 157 | 12.9 | 27.4 | 0.00 | 0.08 | 0.00 | 24 | 1009.3 |
| 20260503221801 | 28 | 190 | 11.3 | 24.1 | 0.00 | 0.08 | 0.00 | 22 | 1009.3 |
| 20260503221302 | 27 | 137 | 12.9 | 19.3 | 0.00 | 0.08 | 0.00 | 25 | 1009.3 |
| 20260503220802 | 27 | 145 | 11.3 | 19.3 | 0.00 | 0.08 | 0.00 | 24 | 1009.5 |
| 20260503220302 | 27 | 145 | 12.9 | 22.5 | 0.00 | 0.08 | 0.00 | 24 | 1009.5 |
| 20260503215801 | 27 | 167 | 14.5 | 27.4 | 0.00 | 0.08 | 0.00 | 26 | 1009.5 |
| 20260503215301 | 27 | 145 | 14.5 | 27.4 | 0.00 | 0.08 | 0.00 | 25 | 1009.5 |
| 20260503213802 | 27 | 145 | 14.5 | 22.5 | 0.00 | 0.08 | 0.00 | 26 | 1009.4 |
| 20260503212801 | 27 | 10 | 16.1 | 22.5 | 0.00 | 0.08 | 0.00 | 27 | 1009.7 |
| 20260503212301 | 26 | 145 | 14.5 | 27.4 | 0.00 | 0.08 | 0.00 | 26 | 1009.7 |
| 20260503211802 | 27 | 145 | 14.5 | 22.5 | 0.00 | 0.08 | 0.00 | 26 | 1009.7 |
| 20260503211302 | 27 | 155 | 16.1 | 20.9 | 0.00 | 0.08 | 0.00 | 27 | 1009.7 |
| 20260503210801 | 26 | 190 | 16.1 | 27.4 | 0.00 | 0.08 | 0.00 | 27 | 1009.9 |
| 20260503210301 | 26 | 145 | 14.5 | 33.8 | 0.00 | 0.08 | 0.00 | 27 | 1009.9 |
| 20260503205802 | 26 | 145 | 12.9 | 33.8 | 0.00 | 0.08 | 0.00 | 27 | 1009.9 |
| 20260503205303 | 26 | 145 | 12.9 | 22.5 | 0.00 | 0.08 | 0.00 | 27 | 1009.9 |
| 20260503204801 | 26 | 145 | 14.5 | 32.2 | 0.00 | 0.08 | 0.00 | 28 | 1010.5 |
| 20260503204302 | 26 | 145 | 16.1 | 33.8 | 0.00 | 0.08 | 0.00 | 28 | 1010.5 |
| 20260503203802 | 26 | 145 | 12.9 | 35.4 | 0.00 | 0.08 | 0.00 | 28 | 1010.5 |
| 20260503203301 | 26 | 134 | 11.3 | 19.3 | 0.00 | 0.08 | 0.00 | 29 | 1010.5 |
| 20260503202301 | 26 | 145 | 17.7 | 29.0 | 0.00 | 0.08 | 0.00 | 28 | 1011.0 |
| 20260503200802 | 25 | 167 | 14.5 | 29.0 | 0.00 | 0.08 | 0.00 | 28 | 1011.3 |
| 20260503200301 | 26 | 145 | 14.5 | 29.0 | 0.00 | 0.08 | 0.00 | 29 | 1011.3 |
| 20260503195301 | 25 | 167 | 14.5 | 27.4 | 0.00 | 0.08 | 0.00 | 27 | 1011.3 |
| 20260503194802 | 25 | 280 | 14.5 | 20.9 | 0.00 | 0.08 | 0.00 | 27 | 1012.0 |
| 20260503194302 | 25 | 219 | 16.1 | 19.3 | 0.00 | 0.08 | 0.00 | 28 | 1012.0 |
| 20260503193802 | 24 | 145 | 16.1 | 24.1 | 0.00 | 0.08 | 0.00 | 29 | 1012.0 |
| 20260503193302 | 24 | 168 | 16.1 | 32.2 | 0.00 | 0.08 | 0.00 | 28 | 1012.0 |
| 20260503192801 | 24 | 190 | 14.5 | 22.5 | 0.00 | 0.08 | 0.00 | 29 | 1012.6 |
| 20260503192305 | 21 | 145 | 11.3 | 4.8 | 0.00 | 0.08 | 0.00 | 39 | 1015.4 |
| 20260503175302 | 20 | 167 | 12.9 | 22.5 | 0.00 | 0.08 | 0.00 | 38 | 1015.4 |
| 20260503174801 | 20 | 167 | 14.5 | 22.5 | 0.00 | 0.08 | 0.00 | 38 | 1016.1 |
| 20260503174301 | 19 | 205 | 16.1 | 32.2 | 0.00 | 0.08 | 0.00 | 38 | 1016.1 |
| 20260503173801 | 19 | 145 | 17.7 | 32.2 | 0.00 | 0.08 | 0.00 | 39 | 1016.1 |
| 20260503173302 | 18 | 145 | 16.1 | 24.1 | 0.00 | 0.08 | 0.00 | 39 | 1016.1 |
| 20260503172802 | 18 | 123 | 12.9 | 49.9 | 0.00 | 0.08 | 0.00 | 39 | 1016.4 |
| 20260503171802 | 18 | 145 | 14.5 | 27.4 | 0.00 | 0.08 | 0.00 | 40 | 1016.3 |
| 20260503171303 | 18 | 239 | 12.9 | 29.0 | 0.00 | 0.08 | 0.00 | 41 | 1016.3 |
| 20260503170803 | 18 | 167 | 14.5 | 29.0 | 0.00 | 0.08 | 0.00 | 41 | 1016.1 |
| 20260503170303 | 18 | 140 | 14.5 | 27.4 | 0.00 | 0.08 | 0.00 | 41 | 1016.1 |